Location: Newark
(35.5485°N, 97.4150°W)
Time: 04:23:38
(UTC+00:00)

LightSail 2 - Visible Passes

Search period start: 21 November 2019 00:00
Search period end: 01 December 2019 00:00
Orbit: 699 x 728 km, 24.0° (Epoch: 20 November)

Date Brightness Start Highest point End Pass type
(mag) Time Alt. Az. Time Alt. Az. Time Alt. Az.
29 Nov 7.3 01:29:37 10° SSW 01:31:45 14° S 01:31:45 14° S visible
30 Nov 7.4 00:32:51 10° S 00:34:34 12° SSE 00:36:17 10° SE visible
30 Nov 7.8 02:15:41 10° SW 02:16:23 13° SW 02:16:23 13° SW visible
